Lid_Strength_Index
5 8 8 8 9 9 9 10 9 9 8 8 8 8 8 8 8 7 7 6 6 6
6 7 7 7 8 8 8 9 9 9 9 9 8 8 8 8 9 7 7 7 7 7
5 5 6 6 8 7 8 8 9 9 9 9 9 8 8 9 8 8 8 7 7 7
4 5 6 7 7 7 7 8 8 8 9 9 9 9 8 9 8 8 8 7 7 8
4 4 5 5 6 7 7 8 8 8 9 9 9 9 8 9 8 8 8 8 8 8
4 5 5 5 5 6 7 8 8 9 9 9 9 9 8 8 8 8 8 8 8 8
4 4 4 5 5 6 7 8 9 9 9 8 9 9 9 9 9 9 9 8 8 9
3 3 3 5 5 7 8 8 8 9 9 9 9 9 9 9 9 9 9 9 10 9
3 4 5 5 7 8 8 8 8 8 9 10 11 10 10 10 10 10 10 10 10 10
3 5 6 5 7 8 9 9 8 9 9 10 10 10 10 10 10 10 10 10 10 11
4 5 7 7 8 8 8 9 9 9 10 9 9 10 10 10 11 11 11 11 10 11
6 6 7 8 9 9 9 10 10 10 9 9 9 9 10 10 10 11 12 11 11 11
6 7 7 8 8 9 9 9 10 10 8 8 9 9 10 10 10 12 12 12 12 13
5 6 7 8 8 9 9 10 10 9 9 9 8 8 9 10 10 11 12 12 12 12